Zurück zum Katalog

FREGAT DEB

AktivUNKNOWN
NORAD 45999·DEBRIS·🇷🇺 Russia

Gestartet Jul 18, 2011 von Baikonur Cosmodrome

Loading…

Nächste Überflüge (nächste 24 Stunden)

TLE

AktuellSource: Space-Track

Epoche: Sep 11, 2026, 03:22 UTC

1 45999U 11037HA  26254.14084519 -.00000174  00000-0 -32542-3 0  9992
2 45999  51.4651 161.4611 2136026 209.2710 136.9714 10.06363852224813

Verfolge FREGAT DEB in Echtzeit mit AllMySat

Download on the App Store